Fairbanks Eiels, AK

10:54 AM AKDT on March 27, 2017 (GMT -0800)
Eielson Air Force Base

Weather History for PAEI - January, 2014

Change the Weather History Date:

Thursday, January 16, 2014

  Actual Average Record
Temperature  
Mean Temperature 8 °F -  
Max Temperature 14 °F -3 °F 51 °F (2009)
Min Temperature 1 °F -18 °F -55 °F (1971)
Degree Days  
Heating Degree Days 58    
Moisture  
Dew Point 4 °F    
Average Humidity 83    
Maximum Humidity 87    
Minimum Humidity 79    
Precipitation  
Precipitation 0.07 in - - ()
Sea Level Pressure  
Sea Level Pressure 29.64 in    
Wind  
Wind Speed 1 mph (WNW)    
Max Wind Speed 8 mph    
Max Gust Speed -    
Visibility 8 miles    
Events Snow    
Averages and records for this station are not official NWS values.
T = Trace of Precipitation, MM = Missing Value Source: NWS Daily Summary

Daily Weather History Graph

Daily Weather History Graph

Search for Another Location

Airport or City:

Trip Planner

Search our weather history database for the weather conditions in past years. The results will help you decide how hot, cold, wet, or windy it might be!

Date:

Astronomy

Jan. 16, 2014 Rise Set
Actual Time 10:18 AM AKST 3:38 PM AKST
Civil Twilight 9:09 AM AKST 4:47 PM AKST
Nautical Twilight 8:04 AM AKST 5:52 PM AKST
Astronomical Twilight 7:05 AM AKST 6:51 PM AKST
Moon 5:29 PM AKST (1/16) 9:32 AM AKST (1/16)
Length of Visible Light 7h 37m
Length of Day
5h 19m
Full, 100% of the Moon is Illuminated
Jan 16
Full
Jan 23
Last Quarter
Jan 30
New
Feb 6
First Quarter
Feb 14
Full

Hourly Weather History & Observations

Time (AKST) Temp. Windchill Dew Point Humidity Pressure Visibility Wind Dir Wind Speed Gust Speed Precip Events Conditions
12:58 AM 3.6 °F - -0.8 °F 82% 29.66 in 10.0 mi Calm Calm - N/A   Clear
1:58 AM 3.0 °F - -1.1 °F 83% 29.62 in 10.0 mi Calm Calm - N/A   Mostly Cloudy
2:58 AM 1.2 °F - -3.1 °F 82% 29.60 in 10.0 mi Calm Calm - N/A   Clear
3:58 AM 2.8 °F - -1.5 °F 82% 29.56 in 10.0 mi Calm Calm - N/A   Clear
4:58 AM 3.4 °F - -0.9 °F 82% 29.54 in 10.0 mi Calm Calm - N/A   Clear
5:58 AM 4.5 °F - 0.3 °F 83% 29.51 in 10.0 mi Variable 1.2 mph - N/A   Clear
6:58 AM 6.1 °F - 2.1 °F 84% 29.49 in 10.0 mi Calm Calm - N/A   Clear
7:58 AM 4.8 °F - 0.7 °F 83% 29.49 in 10.0 mi Variable 2.3 mph - N/A   Clear
8:58 AM 5.4 °F -3.6 °F 1.2 °F 83% 29.51 in 10.0 mi ESE 4.6 mph - N/A   Mostly Cloudy
9:58 AM 6.6 °F - 2.5 °F 83% 29.51 in 10.0 mi Calm Calm - N/A   Mostly Cloudy
10:58 AM 6.3 °F - 2.3 °F 84% 29.49 in 10.0 mi Calm Calm - N/A   Overcast
11:58 AM 7.7 °F 1.0 °F 3.6 °F 83% 29.52 in 10.0 mi Variable 3.5 mph - N/A   Overcast
12:28 PM 8.6 °F -3.7 °F 3.2 °F 79% 29.50 in 4.0 mi WSW 8.1 mph - N/A Snow Light Snow
12:33 PM 8.6 °F -2.6 °F 3.2 °F 79% 29.51 in 0.8 mi WSW 6.9 mph - N/A Snow Light Snow
12:58 PM 8.4 °F - 4.3 °F 83% 29.59 in 0.5 mi Calm Calm - 0.00 in Snow Snow
1:43 PM 8.6 °F 0.1 °F 5.0 °F 85% 29.56 in 0.8 mi SE 4.6 mph - N/A Snow Light Snow
1:58 PM 8.8 °F 2.2 °F 5.2 °F 85% 29.61 in 3.0 mi Variable 3.5 mph - 0.00 in Snow Light Snow
2:16 PM 8.6 °F 2.0 °F 5.0 °F 85% 29.55 in 1.2 mi Variable 3.5 mph - N/A Snow Light Snow
2:19 PM 8.6 °F 2.0 °F 5.0 °F 85% 29.55 in 0.8 mi Variable 3.5 mph - N/A Snow Light Snow
2:47 PM 8.6 °F - 5.0 °F 85% 29.58 in 1.8 mi Variable 2.3 mph - N/A Snow Light Snow
2:58 PM 9.7 °F - 5.7 °F 84% 29.64 in - Variable 2.3 mph - 0.07 in Snow Light Snow
3:28 PM 10.4 °F 2.2 °F 6.8 °F 85% 29.61 in 4.0 mi Variable 4.6 mph - N/A Snow Light Snow
3:58 PM 10.2 °F - 6.1 °F 83% 29.67 in 6.0 mi Calm Calm - 0.00 in Snow Light Snow
4:58 PM 10.6 °F - 6.6 °F 84% 29.72 in 6.0 mi Variable 2.3 mph - 0.00 in Snow Light Snow
5:55 PM 10.8 °F - 7.0 °F 85% 29.74 in 10.0 mi Calm Calm - 0.00 in   Overcast
6:55 PM 12.2 °F - 6.8 °F 79% 29.73 in 10.0 mi Calm Calm - N/A   Overcast
6:58 PM 11.5 °F - 7.3 °F 83% 29.78 in 10.0 mi Calm Calm - N/A   Overcast
7:58 PM 12.2 °F 4.3 °F 7.9 °F 83% 29.82 in 10.0 mi North 4.6 mph - N/A   Overcast
8:58 PM 12.2 °F - 8.4 °F 85% 29.83 in 10.0 mi Calm Calm - N/A   Overcast
9:58 PM 12.7 °F 5.0 °F 9.1 °F 86% 29.83 in 10.0 mi North 4.6 mph - N/A   Overcast
10:13 PM 14.0 °F - 8.6 °F 79% 29.78 in 10.0 mi Variable 1.2 mph - N/A   Overcast
10:58 PM 12.2 °F - 8.6 °F 85% 29.83 in 10.0 mi West 2.3 mph - N/A   Overcast
11:13 PM 12.2 °F - 8.6 °F 85% 29.78 in 10.0 mi NW 1.2 mph - N/A   Mostly Cloudy
11:28 PM 12.2 °F - 8.6 °F 85% 29.77 in 10.0 mi Calm Calm - N/A   Mostly Cloudy
11:43 PM 10.4 °F 4.0 °F 6.8 °F 85% 29.77 in 10.0 mi Variable 3.5 mph - N/A   Mostly Cloudy
11:58 PM 10.9 °F - 7.7 °F 87% 29.82 in 10.0 mi Calm Calm - N/A   Overcast